Wind_Speed
12 15 18 19 20 21 23 22 22 24 26 26 26 28 28 28 28 29 29 28 26 23 21 20 20 18 18 18 20 21 22 21 23 24 24 23 23 24 25 24 22 22 25
17 16 17 19 19 20 21 22 23 25 27 28 28 29 30 30 31 31 31 31 28 25 22 21 20 19 19 21 22 23 23 24 24 24 24 24 23 24 23 22 22 24 26
18 16 16 14 18 20 21 21 22 25 29 31 30 30 32 32 32 32 32 31 29 27 26 25 22 21 21 23 24 24 25 24 24 24 23 20 21 23 23 23 25 25 25
16 15 16 17 16 20 21 22 22 24 28 32 31 32 33 33 33 33 33 32 30 29 28 25 23 22 22 24 24 26 26 26 26 25 20 21 21 23 24 24 25 25 25
14 14 14 17 17 20 20 21 22 23 26 30 32 33 34 34 34 34 33 33 32 29 29 25 23 23 25 26 27 27 28 27 23 19 20 21 21 23 22 23 23 23 22
13 13 15 17 17 18 20 20 21 21 24 27 31 33 33 32 34 34 33 33 32 31 27 24 23 26 28 28 28 28 28 28 20 18 18 19 18 20 22 22 22 24 24
13 12 13 16 17 17 22 21 21 21 24 26 29 31 32 33 33 32 33 31 29 28 26 24 26 28 28 29 30 29 27 22 14 17 17 16 18 19 19 20 20 21 21
15 12 13 18 17 18 19 22 22 22 22 25 28 26 31 30 31 34 31 29 27 24 23 25 27 30 30 30 30 28 28 17 13 13 14 14 17 16 15 16 17 16 16
15 14 13 17 17 17 17 20 23 21 19 19 20 20 22 19 25 28 26 23 21 20 26 27 28 30 29 29 28 28 26 18 11 10 11 11 12 15 15 15 15 15 14
15 13 13 15 17 16 17 17 19 21 19 17 18 18 19 26 22 21 17 19 18 23 25 27 29 29 29 28 26 26 22 18 11 10 8 12 13 14 14 13 15 15 15
15 15 13 14 15 18 15 17 19 20 19 19 18 19 21 27 22 20 25 23 20 18 22 27 30 29 27 25 24 22 18 12 11 9 9 14 17 14 16 15 16 16 16
16 14 13 16 14 16 18 13 16 16 20 18 18 20 20 25 24 24 27 25 24 23 21 24 29 28 26 20 19 20 12 11 11 10 11 17 17 15 15 15 16 16 17
16 15 14 14 13 15 18 14 15 16 18 20 20 22 25 23 21 22 26 26 25 26 26 21 25 25 21 20 19 16 12 13 10 10 13 18 16 17 16 16 16 16 16
20 18 16 15 14 15 14 14 14 15 16 19 21 22 24 24 22 20 28 22 27 28 28 26 26 24 21 19 18 15 13 11 10 11 15 17 18 17 16 16 16 16 16
22 20 18 15 15 15 15 14 16 15 14 19 21 24 25 24 22 22 21 24 29 30 32 29 25 22 20 18 17 15 14 11 12 12 14 16 17 16 16 16 16 16 15
24 21 19 16 14 13 13 15 16 13 15 18 23 25 24 26 24 25 27 25 28 33 31 26 24 22 20 18 17 15 13 12 13 13 14 17 15 16 16 15 15 15 14
24 22 21 18 15 15 13 13 15 18 19 17 19 23 25 27 28 29 29 28 30 34 31 25 24 22 20 18 17 15 13 13 15 14 14 15 16 16 15 15 14 14 15
24 24 21 18 18 16 13 12 14 17 19 20 21 24 25 26 26 25 28 28 32 35 33 24 24 23 21 20 17 16 13 13 15 15 13 14 16 14 14 13 13 14 14
24 25 23 20 19 17 14 14 14 13 18 21 22 24 25 28 27 33 31 29 34 35 34 25 24 23 21 20 18 15 14 13 14 15 14 14 14 14 13 15 15 15 14
24 25 22 21 20 17 15 14 13 12 17 18 20 23 26 30 31 35 31 34 34 35 31 24 25 23 22 21 19 17 14 13 13 14 15 15 14 13 13 13 16 15 16
24 26 24 23 22 21 17 15 14 12 15 16 18 17 19 31 18 36 34 36 36 39 37 28 25 25 23 21 19 15 13 11 12 13 14 15 16 15 15 14 15 15 15
26 27 26 25 24 22 19 16 12 15 16 15 16 16 15 18 25 35 36 36 38 36 34 29 28 26 24 25 21 19 7 7 12 15 15 16 16 16 17 18 18 16 15
27 29 27 27 25 23 19 16 13 14 10 11 15 13 17 18 21 29 37 38 37 36 35 30 28 29 26 27 25 21 7 6 14 16 17 16 16 16 18 19 20 19 19
25 25 26 26 26 24 22 18 17 15 10 11 12 14 12 12 23 28 39 37 37 33 32 31 30 29 26 26 24 25 18 10 11 6 16 19 18 19 20 19 20 21 21
25 27 27 26 25 24 22 18 17 13 13 12 12 13 13 13 20 27 36 35 36 33 29 30 29 29 27 26 25 25 17 12 17 10 7 14 18 21 21 22 22 23 22
25 26 27 27 25 24 22 20 19 16 16 15 13 12 14 17 19 21 27 28 32 31 28 30 30 31 28 25 25 23 22 20 15 13 8 13 18 20 23 24 24 25 22
Wind_Direction
178 169 176 179 189 196 195 191 189 192 193 191 189 186 183 178 173 169 164 161 159 159 153 153 153 146 145 141 136 130 132 134 131 129 125 122 120 120 121 117 116 117 121
166 165 177 176 183 191 194 196 195 196 199 197 195 190 185 180 177 174 168 164 162 160 159 156 153 147 144 140 141 142 139 135 133 130 125 118 118 118 117 118 118 123 122
159 165 175 182 176 183 190 194 200 199 201 204 200 194 188 185 181 176 171 166 165 165 160 158 154 150 151 152 148 144 140 138 134 127 119 121 120 122 124 126 125 122 120
163 169 176 194 181 184 188 191 198 200 202 205 203 197 192 187 183 179 173 169 167 166 160 158 155 154 157 155 151 147 144 141 135 126 124 123 121 119 123 122 120 119 120
163 170 180 196 181 186 191 194 198 200 204 204 203 199 195 190 186 182 173 170 170 167 159 157 156 159 159 156 154 151 147 139 133 132 127 124 124 123 120 121 119 115 116
164 167 193 192 182 185 196 200 201 195 197 199 201 200 196 192 189 182 174 171 175 172 163 162 159 163 161 159 156 153 149 143 134 128 124 124 128 126 125 129 129 128 122
168 174 186 194 188 192 196 203 204 201 197 200 201 199 197 194 188 181 175 175 176 175 168 166 164 166 165 161 158 156 154 145 151 131 133 124 124 122 125 132 131 131 132
170 175 180 192 193 194 202 204 208 208 205 199 209 204 199 196 190 184 177 175 177 176 173 169 169 169 167 164 161 158 154 143 152 148 141 134 146 136 134 135 132 134 134
172 171 179 184 192 199 208 210 213 211 213 218 220 214 208 209 205 191 179 181 180 176 170 168 172 171 170 169 164 160 160 148 160 159 157 135 172 180 174 167 159 152 150
177 176 179 183 189 196 207 213 217 216 212 213 217 212 207 205 205 186 172 180 182 177 174 171 173 173 173 169 167 165 164 152 160 159 164 143 145 139 148 155 168 170 171
188 183 191 184 192 195 205 210 212 216 211 213 214 209 200 196 183 173 192 189 171 191 188 176 174 174 172 169 169 167 160 166 164 167 150 152 148 143 139 147 147 151 152
196 188 196 191 191 197 201 204 208 213 211 205 195 194 186 191 183 178 175 180 175 184 189 192 181 175 165 162 164 164 173 167 172 166 153 159 153 153 147 150 147 149 144
203 192 198 195 197 201 202 201 204 209 205 202 197 191 189 182 184 176 177 181 179 182 177 183 182 166 168 165 169 176 169 166 163 165 159 164 160 155 151 151 152 149 146
204 196 193 193 191 200 194 197 197 201 198 197 196 192 189 181 182 187 189 187 184 185 179 178 177 170 172 171 172 175 169 167 165 161 163 171 163 156 157 161 158 154 151
210 200 189 186 186 195 196 197 199 198 191 191 191 192 189 181 185 193 188 189 192 189 184 175 173 169 171 167 172 173 169 168 165 159 164 172 170 164 166 168 165 159 162
208 198 188 186 189 195 195 204 203 193 194 199 194 192 194 191 187 188 180 183 185 189 182 174 168 169 171 170 172 172 170 167 164 163 164 174 171 173 174 171 169 168 169
203 195 188 181 187 197 200 205 206 209 199 193 191 192 192 193 193 184 178 182 191 190 180 175 171 172 173 171 171 171 168 169 164 163 165 172 180 182 184 181 179 178 176
196 193 187 179 186 197 194 198 205 207 202 210 203 199 198 196 198 188 186 186 191 185 179 178 170 173 174 173 172 170 168 170 166 164 170 177 177 180 189 190 187 189 189
194 188 184 178 187 190 185 195 199 205 211 215 219 219 215 215 205 194 187 183 190 185 181 176 178 175 174 174 172 172 170 170 170 168 179 189 177 183 189 198 200 201 203
192 190 182 173 179 183 184 189 196 203 218 220 223 219 217 209 203 194 184 181 185 181 181 184 178 176 176 178 173 171 172 171 176 177 188 190 186 188 192 192 206 213 209
191 187 179 173 177 175 181 178 188 189 200 212 219 224 225 219 187 187 186 180 182 180 186 182 180 176 182 177 169 165 168 175 184 186 195 197 193 194 201 205 205 207 217
191 189 179 177 177 180 183 182 183 184 199 204 213 220 220 217 217 192 186 180 180 176 179 183 184 179 181 181 177 170 162 175 200 201 198 207 198 198 205 211 213 212 213
193 189 182 178 178 180 183 181 173 171 182 194 202 221 229 218 233 208 184 183 180 180 177 184 183 184 177 187 192 189 170 196 184 201 206 209 205 212 208 213 216 218 219
195 188 183 178 179 180 184 180 180 183 183 201 197 209 216 223 214 198 189 187 187 179 181 185 189 187 185 189 199 203 204 229 185 170 209 213 210 212 216 211 219 219 221
187 184 180 177 180 178 181 180 180 183 196 192 188 199 205 197 195 171 181 182 181 181 185 191 191 193 193 196 194 206 211 199 212 193 186 202 214 219 218 220 221 218 219
179 177 176 177 180 178 176 181 181 184 195 182 188 187 188 199 197 193 184 188 188 187 189 190 189 191 195 200 201 204 211 206 205 215 233 201 212 216 221 222 228 230 227
Height
747 749 751 756 759 763 766 769 770 772 775 777 779 781 783 785 788 791 793 796 799 803 806 809 811 813 814 815 816 817 818 821 822 824 825 826 828 829 831 832 834 835 835
746 750 751 754 758 761 765 769 770 771 774 777 778 781 783 785 787 789 792 794 798 801 806 810 812 814 816 817 818 820 821 823 825 826 827 829 831 832 834 836 837 838 839
747 749 750 753 756 760 764 767 771 771 772 776 778 781 782 785 787 790 793 795 797 800 803 808 812 815 817 818 820 822 824 826 827 829 830 833 835 835 837 838 839 841 842
747 750 752 752 755 758 762 765 768 771 771 773 777 780 782 785 788 791 793 795 799 800 803 807 812 814 817 819 822 824 826 828 831 831 833 835 837 838 840 842 843 844 845
748 750 753 754 757 760 762 764 767 769 771 772 776 780 782 784 787 790 793 795 799 801 803 808 811 815 818 820 823 826 828 831 833 834 835 837 839 842 843 844 846 847 849
749 750 751 753 756 758 762 765 767 769 771 774 775 779 782 785 787 790 793 796 798 801 803 808 811 815 818 820 823 828 831 832 833 836 838 840 842 844 845 847 848 849 851
748 750 749 752 755 759 760 764 767 768 771 774 776 779 782 785 787 791 793 797 800 802 805 809 812 816 820 821 824 828 831 835 836 838 840 843 845 847 847 849 851 852 853
746 749 750 750 754 757 760 763 766 768 771 774 776 780 782 785 789 788 793 797 800 804 808 809 813 817 820 824 826 829 833 835 838 840 842 845 847 849 850 852 853 855 857
745 747 750 750 754 757 761 762 766 767 771 775 779 782 780 783 787 792 795 798 803 807 808 811 814 818 821 826 829 831 834 837 840 842 844 846 849 850 852 854 856 857 860
743 746 748 751 753 755 759 762 765 768 770 774 777 781 785 786 787 778 791 802 804 807 809 811 816 820 823 828 831 833 836 839 841 844 846 846 851 853 853 857 857 859 862
743 744 747 749 753 753 758 761 763 767 769 772 775 778 781 784 787 793 792 803 803 810 812 812 816 820 826 830 833 836 838 839 842 844 845 849 852 855 855 859 860 862 864
742 744 748 748 751 752 756 758 762 765 768 771 774 775 778 782 786 793 795 801 801 808 812 813 816 820 827 832 836 838 839 840 843 845 846 851 853 857 858 860 862 864 865
740 742 746 749 750 752 754 756 759 762 764 768 771 773 777 781 787 790 792 796 800 805 806 814 819 823 827 831 836 839 840 842 843 845 847 853 854 857 859 862 864 866 867
735 738 743 745 747 750 751 754 757 760 761 765 768 772 774 779 783 786 789 793 797 802 805 810 818 822 827 831 835 838 840 841 844 845 849 854 856 858 860 863 865 866 868
731 736 738 742 744 748 748 752 754 757 758 761 766 769 773 777 781 784 788 792 794 799 803 808 816 822 827 830 835 839 840 842 845 846 850 854 857 858 862 864 866 867 869
725 731 735 739 743 747 748 751 752 754 757 760 763 767 770 774 778 782 785 790 793 797 802 807 814 821 826 829 835 838 841 842 844 846 849 855 857 860 863 865 866 868 870
720 726 731 734 741 746 747 749 750 752 755 759 762 766 769 772 775 779 784 788 792 796 802 807 814 819 824 829 834 838 840 842 844 846 849 853 858 860 863 865 866 868 870
715 721 727 730 737 743 744 747 748 750 753 757 760 763 766 770 774 779 783 787 790 794 801 806 812 817 822 827 832 835 838 842 844 847 849 853 856 860 863 865 867 868 870
711 717 722 726 735 740 742 745 746 749 752 754 757 760 764 768 772 775 779 784 787 793 799 804 811 815 820 825 830 834 837 841 844 846 850 853 854 857 861 863 867 869 870
707 714 718 722 730 737 741 743 745 748 750 753 755 758 762 764 767 769 775 779 786 791 798 804 808 814 818 823 828 833 837 840 843 845 849 851 853 856 859 861 865 867 868
704 710 713 720 727 733 738 740 743 745 749 751 754 756 758 760 756 763 770 775 781 788 795 802 806 811 817 822 827 833 836 839 843 845 848 850 850 853 857 860 861 863 865
699 704 708 716 723 729 734 737 739 742 747 749 751 754 756 759 762 758 762 771 777 785 793 799 804 809 814 819 822 828 834 841 842 843 845 847 847 850 853 857 859 860 862
692 697 704 711 719 726 730 733 737 740 745 748 749 751 753 755 757 759 759 767 774 781 788 796 800 805 810 816 818 820 826 827 835 839 842 844 845 848 849 852 855 856 858
686 694 701 708 716 721 726 730 733 737 742 745 746 748 750 751 752 754 758 764 771 778 786 792 798 802 807 812 816 817 818 817 823 831 837 840 842 844 845 847 849 850 852
681 690 697 705 714 717 722 727 731 736 740 742 745 747 750 751 752 753 756 762 767 775 784 789 795 800 805 809 812 816 819 820 821 820 826 833 837 838 839 841 842 843 844
677 686 694 703 710 714 719 724 728 733 738 740 743 746 748 750 753 755 758 763 768 775 781 787 791 796 801 806 810 813 815 816 818 818 820 823 828 831 833 835 836 838 838